Broken Bow, NE

4:12 PM CST on February 21, 2018 (GMT -0600)
Broken Bow Municipal

Weather History for KBBW - January, 2014

Change the Weather History Date:

Wednesday, January 29, 2014

  Actual Average Record
Temperature  
Mean Temperature 23 °F 26 °F  
Max Temperature 51 °F 38 °F 69 °F (1920)
Min Temperature -5 °F 13 °F -14 °F (1966)
Degree Days  
Heating Degree Days 42 39  
Month to date heating degree days 1162 1138  
Cooling Degree Days 0 0  
Month to date cooling degree days 0 0  
Year to date cooling degree days 0 0  
Moisture  
Dew Point 4 °F    
Average Humidity 46    
Maximum Humidity 76    
Minimum Humidity 16    
Precipitation  
Precipitation 0.00 in 0.03 in 0.33 in (1905)
Sea Level Pressure  
Sea Level Pressure 29.88 in    
Wind  
Wind Speed 9 mph (SW)    
Max Wind Speed 23 mph    
Max Gust Speed 33 mph    
Visibility 10 miles    
Events      
T = Trace of Precipitation, MM = Missing Value Source: NWS Daily Summary

Daily Weather History Graph

Daily Weather History Graph

Search for Another Location

Airport or City:

Trip Planner

Search our weather history database for the weather conditions in past years. The results will help you decide how hot, cold, wet, or windy it might be!

Date:

Astronomy

Jan. 29, 2014 Rise Set
Actual Time 7:52 AM CST 5:51 PM CST
Civil Twilight 7:23 AM CST 6:20 PM CST
Nautical Twilight 6:50 AM CST 6:53 PM CST
Astronomical Twilight 6:17 AM CST 7:26 PM CST
Moon 6:31 AM CST (1/29) 4:52 PM CST (1/29)
Length of Visible Light 10h 57m
Length of Day
9h 58m
Waning Crescent, 2% of the Moon is Illuminated
Jan 29
Waning Crescent
Jan 30
New
Feb 6
First Quarter
Feb 14
Full
Feb 22
Last Quarter

Hourly Weather History & Observations

Time (CST) Temp. Windchill Dew Point Humidity Pressure Visibility Wind Dir Wind Speed Gust Speed Precip Events Conditions
12:53 AM -0.0 °F - -8.0 °F 69% 30.22 in 10.0 mi Calm Calm - N/A   Clear
1:53 AM -0.9 °F - -9.0 °F 69% 30.19 in 10.0 mi Calm Calm - N/A   Clear
2:53 AM -2.9 °F - -11.0 °F 68% 30.17 in 10.0 mi Calm Calm - N/A   Clear
3:53 AM -0.9 °F - -9.0 °F 69% 30.13 in 10.0 mi Calm Calm - N/A   Clear
4:53 AM 1.9 °F - -7.1 °F 66% 30.10 in 10.0 mi Calm Calm - N/A   Clear
5:53 AM 7.0 °F - -2.0 °F 67% 30.08 in 10.0 mi Calm Calm - N/A   Clear
6:53 AM 5.0 °F -2.1 °F -2.0 °F 73% 30.09 in 10.0 mi WSW 3.5 mph - N/A   Clear
7:53 AM 7.0 °F -4.5 °F -0.0 °F 73% 30.08 in 10.0 mi SW 6.9 mph - N/A   Clear
8:53 AM 16.0 °F 6.3 °F 5.0 °F 62% 30.05 in 10.0 mi SW 6.9 mph - N/A   Clear
9:53 AM 26.1 °F 15.0 °F 7.0 °F 44% 30.02 in 10.0 mi WSW 12.7 mph - N/A   Clear
10:53 AM 34.0 °F 25.0 °F 8.1 °F 34% 29.98 in 10.0 mi WSW 12.7 mph - N/A   Clear
11:53 AM 41.0 °F 34.3 °F 9.0 °F 27% 29.93 in 10.0 mi WSW 11.5 mph - N/A   Clear
12:53 PM 45.0 °F 38.5 °F 9.0 °F 23% 29.88 in 10.0 mi WSW 13.8 mph - N/A   Clear
1:53 PM 46.9 °F - 7.0 °F 20% 29.83 in 10.0 mi WSW 11.5 mph - N/A   Clear
2:53 PM 50.0 °F - 7.0 °F 18% 29.79 in 10.0 mi WSW 15.0 mph - N/A   Clear
3:53 PM 51.1 °F - 6.1 °F 16% 29.76 in 10.0 mi SW 16.1 mph - N/A   Clear
4:53 PM 50.0 °F - 7.0 °F 18% 29.72 in 10.0 mi SW 11.5 mph - N/A   Clear
5:53 PM 41.0 °F 36.4 °F 8.1 °F 26% 29.70 in 10.0 mi South 6.9 mph - N/A   Clear
6:53 PM 33.1 °F 26.9 °F 8.1 °F 35% 29.69 in 10.0 mi SE 6.9 mph - N/A   Clear
7:53 PM 39.9 °F 32.5 °F 10.0 °F 29% 29.64 in 10.0 mi South 12.7 mph 23.0 mph N/A   Clear
8:53 PM 44.1 °F 37.1 °F 9.0 °F 24% 29.58 in 10.0 mi SSW 15.0 mph 28.8 mph N/A   Scattered Clouds
9:53 PM 44.1 °F 35.9 °F 10.0 °F 25% 29.52 in 10.0 mi SSW 19.6 mph 28.8 mph N/A   Overcast
10:53 PM 44.1 °F 36.5 °F 10.0 °F 25% 29.48 in 10.0 mi SSW 17.3 mph 32.2 mph N/A   Overcast
11:53 PM 43.0 °F 36.0 °F 12.0 °F 28% 29.43 in 10.0 mi SSW 13.8 mph 25.3 mph N/A   Overcast